VK2RZ Weather Reports


Display with metric or nautical units.
time (UTC)temp
F
wind
direction
speed
MPH
gust
MPH
rain 1hr
in
rain 24hr
in
rain mn
in
humidity
%
barometer
mb
20260905041731 88 93 6.0 12.0 0.00 0.00 0.00 3 1006.4
20260905040731 87 23 6.0 7.0 0.00 0.00 0.00 3 1006.4
20260905035731 86 27 2.0 6.0 0.00 0.00 0.00 3 1006.8
20260905034731 83 74 3.0 6.0 0.00 0.00 0.00 4 1006.9
20260905033731 79 69 1.0 11.0 0.00 0.00 0.00 5 1007.0
20260905032731 81 57 5.0 12.0 0.00 0.00 0.00 4 1007.4
20260905031731 84 78 4.0 7.0 0.00 0.00 0.00 3 1007.9
20260905030731 83 52 2.0 7.0 0.00 0.00 0.00 3 1008.2
20260905025731 83 72 4.0 14.0 0.00 0.00 0.00 3 1008.5
20260905024731 83 58 3.0 12.0 0.00 0.00 0.00 3 1008.9
20260905023731 82 17 7.0 7.0 0.00 0.00 0.00 3 1009.3
20260905022731 82 62 6.0 10.0 0.00 0.00 0.00 4 1009.9
20260905021731 80 81 2.0 11.0 0.00 0.00 0.00 4 1010.1
20260905020731 81 66 2.0 7.0 0.00 0.00 0.00 4 1010.5
20260905015731 81 91 4.0 7.0 0.00 0.00 0.00 4 1010.7
20260905014731 80 132 8.0 9.0 0.00 0.00 0.00 4 1010.9
20260905013731 79 38 1.0 10.0 0.00 0.00 0.00 4 1011.4
20260905012731 78 60 3.0 9.0 0.00 0.00 0.00 4 1011.5
20260905011731 78 89 2.0 8.0 0.00 0.00 0.00 4 1011.7
20260905010731 77 45 6.0 8.0 0.00 0.00 0.00 4 1011.9
20260905005731 77 31 2.0 8.0 0.00 0.00 0.00 4 1012.2
20260905004731 76 6 2.0 9.0 0.00 0.00 0.00 4 1012.5
20260905003731 76 73 4.0 7.0 0.00 0.00 0.00 4 1012.8
20260905002731 73 133 2.0 5.0 0.00 0.00 0.00 4 1013.1
20260905001731 75 97 2.0 8.0 0.00 0.00 0.00 4 1013.2
20260905000731 75 272 2.0 5.0 0.00 0.00 0.00 4 1013.4
20260904235730 75 129 2.0 7.0 0.00 0.00 0.00 4 1013.7
20260904234730 74 143 4.0 6.0 0.00 0.00 0.00 4 1014.0
20260904233730 73 278 2.0 11.0 0.00 0.00 0.00 4 1014.3
20260904232730 70 237 3.0 6.0 0.00 0.00 0.00 5 1014.5
20260904231730 70 144 1.0 8.0 0.00 0.00 0.00 5 1014.4
20260904230730 70 123 2.0 7.0 0.00 0.00 0.00 5 1014.6
20260904225730 71 121 4.0 5.0 0.00 0.00 0.00 4 1014.7
20260904224730 71 168 3.0 4.0 0.00 0.00 0.00 5 1015.1
20260904223730 70 175 4.0 5.0 0.00 0.00 0.00 5 1015.1
20260904222730 69 243 1.0 9.0 0.00 0.00 0.00 5 1015.4
20260904221730 69 210 2.0 4.0 0.00 0.00 0.00 5 1015.7
20260904220730 68 253 4.0 7.0 0.00 0.00 0.00 5 1015.7
20260904215730 67 198 1.0 5.0 0.00 0.00 0.00 5 1015.7
20260904214730 66 0 0.0 2.0 0.00 0.00 0.00 5 1015.9
20260904213730 65 0 0.0 3.0 0.00 0.00 0.00 5 1015.9
20260904212730 64 228 3.0 4.0 0.00 0.00 0.00 5 1016.0
20260904211730 63 229 3.0 7.0 0.00 0.00 0.00 5 1015.9
20260904210730 63 254 5.0 5.0 0.00 0.00 0.00 6 1015.8
20260904205730 62 251 5.0 10.0 0.00 0.00 0.00 6 1016.0
20260904204730 62 239 2.0 8.0 0.00 0.00 0.00 6 1016.1
20260904203730 61 217 4.0 11.0 0.00 0.00 0.00 6 1016.0
20260904202730 61 218 4.0 5.0 0.00 0.00 0.00 6 1016.0
20260904201730 60 217 1.0 4.0 0.00 0.00 0.00 6 1016.0
20260904200730 60 219 2.0 4.0 0.00 0.00 0.00 6 1015.9
20260904195730 61 235 2.0 4.0 0.00 0.00 0.00 6 1016.0
20260904194730 60 232 2.0 5.0 0.00 0.00 0.00 6 1015.9
20260904193730 60 226 3.0 6.0 0.00 0.00 0.00 6 1015.6
20260904192730 60 250 1.0 5.0 0.00 0.00 0.00 6 1015.6
20260904191730 60 249 3.0 6.0 0.00 0.00 0.00 6 1015.7
20260904190730 60 241 2.0 4.0 0.00 0.00 0.00 6 1015.6
20260904185730 59 242 1.0 3.0 0.00 0.00 0.00 6 1015.8
20260904184730 59 233 1.0 3.0 0.00 0.00 0.00 6 1015.9
20260904183729 60 0 0.0 2.0 0.00 0.00 0.00 6 1016.0
20260904182729 60 234 2.0 4.0 0.00 0.00 0.00 6 1016.0
20260904181729 60 214 3.0 3.0 0.00 0.00 0.00 6 1016.1
20260904180729 60 210 1.0 5.0 0.00 0.00 0.00 6 1016.0
20260904175729 60 220 4.0 5.0 0.00 0.00 0.00 6 1015.9
20260904174729 59 220 2.0 6.0 0.00 0.00 0.00 7 1015.9
20260904173729 59 247 3.0 3.0 0.00 0.00 0.00 6 1015.9
20260904172729 59 247 1.0 2.0 0.00 0.00 0.00 6 1015.9
20260904171729 59 0 0.0 0.0 0.00 0.00 0.00 6 1016.1
20260904170729 59 0 0.0 1.0 0.00 0.00 0.00 6 1016.2
20260904165729 59 0 0.0 0.0 0.00 0.00 0.00 6 1016.3
20260904164729 59 0 0.0 0.0 0.00 0.00 0.00 6 1016.4
20260904163729 59 0 0.0 0.0 0.00 0.00 0.00 6 1016.5
20260904162729 59 0 0.0 2.0 0.00 0.00 0.00 6 1016.8
20260904161729 60 249 5.0 6.0 0.00 0.00 0.00 6 1017.0
20260904160728 58 279 3.0 4.0 0.00 0.00 0.00 7 1017.2
20260904155728 58 0 0.0 0.0 0.00 0.00 0.00 7 1017.2
20260904154728 59 281 2.0 3.0 0.00 0.00 0.00 7 1017.3
20260904153728 58 279 2.0 2.0 0.00 0.00 0.00 7 1017.5
20260904152728 57 279 1.0 1.0 0.00 0.00 0.00 7 1017.7
20260904151728 58 0 0.0 0.0 0.00 0.00 0.00 7 1017.6
20260904150728 58 279 1.0 2.0 0.00 0.00 0.00 7 1017.8
20260904145728 59 279 1.0 3.0 0.00 0.00 0.00 7 1018.0
20260904144728 60 279 1.0 6.0 0.00 0.00 0.00 7 1018.1
20260904143728 60 298 2.0 4.0 0.00 0.00 0.00 7 1018.0
20260904142728 61 299 4.0 8.0 0.00 0.00 0.00 6 1018.1
20260904141728 61 307 5.0 5.0 0.00 0.00 0.00 6 1018.3
20260904140728 61 301 3.0 8.0 0.00 0.00 0.00 6 1018.3
20260904135728 61 293 3.0 6.0 0.00 0.00 0.00 6 1018.2
20260904134728 61 294 3.0 4.0 0.00 0.00 0.00 6 1018.3
20260904133728 60 292 1.0 3.0 0.00 0.00 0.00 7 1018.3
20260904132728 59 0 0.0 0.0 0.00 0.00 0.00 7 1018.5
20260904131728 58 0 0.0 1.0 0.00 0.00 0.00 7 1018.5
20260904130728 59 291 2.0 4.0 0.00 0.00 0.00 7 1018.6
20260904125728 58 292 3.0 9.0 0.00 0.00 0.00 8 1018.7
20260904124728 58 0 0.0 1.0 0.00 0.00 0.00 8 1018.8
20260904123728 58 0 0.0 2.0 0.00 0.00 0.00 8 1019.1
20260904122728 58 0 0.0 0.0 0.00 0.00 0.00 8 1019.2
20260904121728 58 316 3.0 3.0 0.00 0.00 0.00 8 1019.3
20260904120728 59 0 0.0 1.0 0.00 0.00 0.00 8 1019.4
20260904115728 59 0 0.0 2.0 0.00 0.00 0.00 8 1019.3
20260904114728 59 345 1.0 2.0 0.00 0.00 0.00 8 1019.3
20260904113728 60 345 2.0 4.0 0.00 0.00 0.00 8 1019.4
20260904112728 60 0 0.0 0.0 0.00 0.00 0.00 7 1019.5
20260904111728 60 345 1.0 4.0 0.00 0.00 0.00 7 1019.5
20260904110728 60 345 1.0 5.0 0.00 0.00 0.00 7 1019.5
20260904105728 61 0 0.0 4.0 0.00 0.00 0.00 7 1019.2
20260904104728 61 346 1.0 4.0 0.00 0.00 0.00 7 1019.3
20260904103728 61 346 1.0 4.0 0.00 0.00 0.00 7 1019.2
20260904102728 61 349 2.0 4.0 0.00 0.00 0.00 7 1019.0
20260904101728 61 349 1.0 5.0 0.00 0.00 0.00 7 1018.9
20260904100728 61 346 1.0 4.0 0.00 0.00 0.00 7 1019.0
20260904095728 61 346 1.0 5.0 0.00 0.00 0.00 7 1018.9
20260904094728 61 341 1.0 4.0 0.00 0.00 0.00 7 1018.6
20260904093728 61 0 0.0 2.0 0.00 0.00 0.00 7 1018.6
20260904092727 60 341 4.0 4.0 0.00 0.00 0.00 7 1018.5
20260904091727 61 339 4.0 6.0 0.00 0.00 0.00 7 1018.3
20260904090727 61 350 2.0 5.0 0.00 0.00 0.00 7 1018.3
20260904085727 60 35 3.0 4.0 0.00 0.00 0.00 7 1018.3
20260904084727 60 0 0.0 0.0 0.00 0.00 0.00 7 1018.2
20260904083727 61 0 0.0 0.0 0.00 0.00 0.00 7 1018.2
20260904082727 61 36 1.0 3.0 0.00 0.00 0.00 7 1018.0
20260904081727 61 0 0.0 2.0 0.00 0.00 0.00 7 1017.9
20260904080727 61 0 0.0 2.0 0.00 0.00 0.00 6 1017.9
20260904075727 62 36 1.0 3.0 0.00 0.00 0.00 6 1017.9
20260904074727 62 37 2.0 3.0 0.00 0.00 0.00 6 1017.8
20260904073727 62 0 0.0 2.0 0.00 0.00 0.00 6 1017.6
20260904072727 62 37 1.0 3.0 0.00 0.00 0.00 7 1017.4
20260904071727 62 0 0.0 1.0 0.00 0.00 0.00 7 1017.2
20260904070727 62 37 1.0 2.0 0.00 0.00 0.00 7 1017.1
20260904065727 63 0 0.0 0.0 0.00 0.00 0.00 6 1017.1
20260904064727 64 37 2.0 2.0 0.00 0.00 0.00 6 1017.0
20260904063727 64 35 3.0 3.0 0.00 0.00 0.00 6 1016.9
20260904062727 64 37 2.0 6.0 0.00 0.00 0.00 6 1017.0
20260904061727 65 12 2.0 8.0 0.00 0.00 0.00 6 1017.0
20260904060727 65 46 3.0 5.0 0.00 0.00 0.00 6 1017.0
20260904055727 65 43 6.0 10.0 0.00 0.00 0.00 6 1017.0
20260904054727 66 20 2.0 8.0 0.00 0.00 0.00 6 1017.2
20260904053727 67 46 3.0 7.0 0.00 0.00 0.00 6 1017.2
20260904052727 67 56 4.0 8.0 0.00 0.00 0.00 6 1017.2
20260904051727 67 89 6.0 8.0 0.00 0.00 0.00 6 1017.2
20260904050727 67 116 5.0 9.0 0.00 0.00 0.00 6 1017.4
20260904045727 70 175 3.0 3.0 0.00 0.00 0.00 5 1017.4
20260904044726 72 193 1.0 4.0 0.00 0.00 0.00 4 1017.6
20260904043726 72 247 2.0 3.0 0.00 0.00 0.00 4 1017.7
20260904042726 73 256 3.0 4.0 0.00 0.00 0.00 4 1017.6